College Park, MD

1:32 AM EDT on July 25, 2017 (GMT -0400)
College Park

Weather History for KCGS - January, 2013

Change the Weather History Date:

Wednesday, January 9, 2013

  Actual Average Record
Temperature  
Mean Temperature 42 °F -  
Max Temperature 54 °F 38 °F 62 °F (1965)
Min Temperature 30 °F 22 °F 4 °F (1981)
Degree Days  
Heating Degree Days 23    
Moisture  
Dew Point 36 °F    
Average Humidity 87    
Maximum Humidity 100    
Minimum Humidity 46    
Precipitation  
Precipitation 0.00 in - - ()
Sea Level Pressure  
Sea Level Pressure 30.34 in    
Wind  
Wind Speed 1 mph (SW)    
Max Wind Speed 7 mph    
Max Gust Speed -    
Visibility 8 miles    
Events      
Averages and records for this station are not official NWS values.
T = Trace of Precipitation, MM = Missing Value Source: NWS Daily Summary

Daily Weather History Graph

Daily Weather History Graph

Search for Another Location

Airport or City:

Trip Planner

Search our weather history database for the weather conditions in past years. The results will help you decide how hot, cold, wet, or windy it might be!

Date:

Astronomy

Jan. 09, 2013 Rise Set
Actual Time 7:26 AM EST 5:03 PM EST
Civil Twilight 6:56 AM EST 5:33 PM EST
Nautical Twilight 6:23 AM EST 6:06 PM EST
Astronomical Twilight 5:51 AM EST 6:38 PM EST
Moon 5:03 AM EST (1/9) 3:03 PM EST (1/9)
Length of Visible Light 10h 36m
Length of Day
9h 37m
Waning Crescent, 6% of the Moon is Illuminated
Jan 9
Waning Crescent
Jan 11
New
Jan 18
First Quarter
Jan 26
Full
Feb 3
Last Quarter

Hourly Weather History & Observations

Time (EST) Temp. Windchill Dew Point Humidity Pressure Visibility Wind Dir Wind Speed Gust Speed Precip Events Conditions
12:00 AM 32.0 °F - 32.0 °F 100% 30.39 in 7.0 mi Calm Calm - N/A   Clear
12:20 AM 31.5 °F - 31.5 °F 100% 30.38 in 3.0 mi Calm Calm - N/A   Clear
12:40 AM 31.8 °F - 31.8 °F 100% 30.39 in 4.0 mi Calm Calm - N/A   Clear
1:05 AM 31.5 °F - 31.5 °F 100% 30.39 in 7.0 mi Calm Calm - N/A   Clear
1:25 AM 30.9 °F - 30.9 °F 100% 30.38 in 7.0 mi Calm Calm - N/A   Clear
1:45 AM 31.1 °F - 31.1 °F 100% 30.38 in 7.0 mi Calm Calm - N/A   Clear
2:05 AM 30.9 °F - 30.9 °F 100% 30.38 in 7.0 mi Calm Calm - N/A   Clear
2:50 AM 30.0 °F - 30.0 °F 100% 30.38 in 7.0 mi Calm Calm - N/A   Clear
3:10 AM 30.0 °F - 30.0 °F 100% 30.38 in 7.0 mi Calm Calm - N/A   Clear
3:25 AM 30.6 °F - 30.6 °F 100% 30.39 in 7.0 mi Calm Calm - N/A   Clear
3:55 AM 30.0 °F - 30.0 °F 100% 30.38 in 7.0 mi Calm Calm - N/A   Clear
4:10 AM 30.6 °F - 30.6 °F 100% 30.37 in 7.0 mi Calm Calm - N/A   Clear
4:35 AM 30.0 °F - 30.0 °F 100% 30.37 in 10.0 mi Calm Calm - N/A   Clear
4:55 AM 30.0 °F - 30.0 °F 100% 30.36 in 7.0 mi Calm Calm - N/A   Clear
5:20 AM 30.9 °F - 30.9 °F 100% 30.35 in 10.0 mi Calm Calm - N/A   Clear
5:40 AM 30.9 °F - 30.9 °F 100% 30.36 in 10.0 mi Calm Calm - N/A   Clear
6:00 AM 30.2 °F - 30.2 °F 100% 30.36 in 7.0 mi Calm Calm - N/A   Clear
6:20 AM 30.7 °F - 30.7 °F 100% 30.36 in 7.0 mi Calm Calm - N/A   Clear
6:45 AM 30.9 °F - 30.9 °F 100% 30.36 in 10.0 mi Calm Calm - N/A   Clear
7:05 AM 30.7 °F - 30.7 °F 100% 30.36 in 10.0 mi Calm Calm - N/A   Clear
7:25 AM 30.9 °F - 30.9 °F 100% 30.37 in 7.0 mi Calm Calm - N/A   Clear
7:45 AM 30.9 °F - 30.9 °F 100% 30.37 in 5.0 mi Calm Calm - N/A   Clear
8:10 AM 32.0 °F - 32.0 °F 100% 30.39 in 7.0 mi Calm Calm - N/A   Scattered Clouds
8:30 AM 33.8 °F - 33.8 °F 100% 30.38 in 5.0 mi Calm Calm - N/A   Clear
8:50 AM 36.3 °F - 34.7 °F 94% 30.38 in 10.0 mi Calm Calm - N/A   Clear
9:10 AM 36.9 °F - 35.1 °F 93% 30.37 in 7.0 mi Calm Calm - N/A   Clear
9:55 AM 41.9 °F - 37.4 °F 84% 30.38 in 10.0 mi Calm Calm - N/A   Clear
10:15 AM 44.4 °F 42.9 °F 37.8 °F 77% 30.37 in 10.0 mi South 3.5 mph - N/A   Clear
10:35 AM 45.3 °F 44.0 °F 38.7 °F 78% 30.36 in 10.0 mi SSW 3.5 mph - N/A   Clear
11:00 AM 46.6 °F - 38.7 °F 74% 30.35 in 10.0 mi South 3.5 mph - N/A   Scattered Clouds
11:20 AM 47.3 °F - 38.8 °F 72% 30.34 in 10.0 mi South 4.6 mph - N/A   Mostly Cloudy
11:35 AM 47.3 °F - 39.0 °F 73% 30.34 in 10.0 mi SW 3.5 mph - N/A   Overcast
12:00 PM 48.0 °F - 39.2 °F 72% 30.32 in 10.0 mi SSW 3.5 mph - N/A   Overcast
12:45 PM 48.4 °F - 39.2 °F 71% 30.32 in 10.0 mi Calm Calm - N/A   Mostly Cloudy
1:05 PM 48.6 °F - 39.4 °F 71% 30.31 in 10.0 mi Calm Calm - N/A   Overcast
1:25 PM 49.1 °F - 39.7 °F 70% 30.32 in 10.0 mi Calm Calm - N/A   Overcast
1:50 PM 49.3 °F - 40.1 °F 71% 30.31 in 10.0 mi South 3.5 mph - N/A   Overcast
2:10 PM 49.5 °F - 40.1 °F 70% 30.30 in 10.0 mi South 4.6 mph - N/A   Mostly Cloudy
2:30 PM 50.0 °F - 40.5 °F 70% 30.31 in 10.0 mi SW 3.5 mph - N/A   Mostly Cloudy
2:50 PM 49.5 °F - 41.7 °F 75% 30.29 in 7.0 mi Calm Calm - N/A   Overcast
3:15 PM 49.3 °F - 42.3 °F 77% 30.27 in 10.0 mi Calm Calm - N/A   Overcast
3:35 PM 49.3 °F - 42.8 °F 78% 30.25 in 10.0 mi Calm Calm - N/A   Overcast
3:55 PM 49.5 °F - 42.8 °F 78% 30.25 in 10.0 mi Calm Calm - N/A   Overcast
4:20 PM 50.0 °F - 43.0 °F 77% 30.25 in 10.0 mi Calm Calm - N/A   Scattered Clouds
4:40 PM 50.0 °F - 43.2 °F 77% 30.24 in 10.0 mi Calm Calm - N/A   Clear
5:00 PM 49.6 °F - 43.3 °F 79% 30.24 in 10.0 mi Calm Calm - N/A   Clear
5:20 PM 45.7 °F - 43.5 °F 92% 30.25 in 10.0 mi Calm Calm - N/A   Clear
5:45 PM 45.0 °F - 42.8 °F 92% 30.25 in 10.0 mi Calm Calm - N/A   Clear
6:05 PM 43.0 °F - 42.1 °F 97% 30.25 in 10.0 mi Calm Calm - N/A   Clear
6:25 PM 41.0 °F - 41.0 °F 100% 30.25 in 7.0 mi Calm Calm - N/A   Clear
6:45 PM 41.0 °F - 41.0 °F 100% 30.27 in 5.0 mi Calm Calm - N/A   Scattered Clouds
7:10 PM 41.5 °F 39.6 °F 41.5 °F 100% 30.30 in 7.0 mi North 3.5 mph - N/A   Mostly Cloudy
8:10 PM 42.3 °F - 41.5 °F 97% 30.32 in 7.0 mi Calm Calm - N/A   Clear
8:35 PM 40.8 °F - 40.6 °F 99% 30.32 in 7.0 mi Calm Calm - N/A   Clear
8:55 PM 40.3 °F - 40.3 °F 100% 30.33 in 7.0 mi Calm Calm - N/A   Clear
9:15 PM 40.1 °F - 40.1 °F 100% 30.34 in 7.0 mi Calm Calm - N/A   Clear
9:35 PM 43.3 °F 41.7 °F 40.8 °F 91% 30.34 in 10.0 mi WNW 3.5 mph - N/A   Clear
10:00 PM 53.8 °F - 36.5 °F 52% 30.35 in 10.0 mi WNW 6.9 mph - N/A   Clear
10:20 PM 54.0 °F - 35.2 °F 49% 30.35 in 10.0 mi West 3.5 mph - N/A   Clear
11:00 PM 53.4 °F - 34.0 °F 48% 30.37 in 10.0 mi SW 3.5 mph - N/A   Clear
11:25 PM 52.7 °F - 33.6 °F 48% 30.37 in 10.0 mi West 4.6 mph - N/A   Clear
11:45 PM 53.1 °F - 32.9 °F 46% 30.38 in 10.0 mi West 6.9 mph - N/A   Clear